Hourly Weather Otowice

Today, 24 July, Saturday

Time Temperature Precipitation Wind Pressure Humidity
00:00 +17°C° 0 mm 2 mps 754 mmHg 78%
01:00 +17°C° 0 mm 2 mps 754 mmHg 80%
02:00 +17°C° 0 mm 2 mps 754 mmHg 80%
03:00 +16°C° 0 mm 2 mps 754 mmHg 81%
04:00 +16°C° 0 mm 2 mps 754 mmHg 81%
05:00 +17°C° 0 mm 2 mps 754 mmHg 77%
06:00 +19°C° 0 mm 2 mps 754 mmHg 73%
07:00 +20°C° 0 mm 2 mps 754 mmHg 67%
08:00 +23°C° 0 mm 2 mps 754 mmHg 61%
09:00 +24°C° 0 mm 2 mps 754 mmHg 55%
10:00 +26°C° 0 mm 2 mps 754 mmHg 50%
11:00 +26°C° 0 mm 2 mps 754 mmHg 48%
12:00 +26°C° 0 mm 2 mps 754 mmHg 47%
13:00 +27°C° 0 mm 2 mps 754 mmHg 46%
14:00 +26°C° 0 mm 2 mps 754 mmHg 47%
15:00 +26°C° 0 mm 2 mps 754 mmHg 49%
16:00 +26°C° 0 mm 1 mps 754 mmHg 51%
17:00 +25°C° 0 mm 1 mps 754 mmHg 56%
18:00 +24°C° 0 mm 2 mps 753 mmHg 61%
19:00 +23°C° 0 mm 2 mps 753 mmHg 65%
20:00 +23°C° 0 mm 2 mps 753 mmHg 66%
21:00 +21°C° 0 mm 2 mps 753 mmHg 68%
22:00 +21°C° 0 mm 2 mps 753 mmHg 69%
23:00 +20°C° 0 mm 2 mps 753 mmHg 68%

Tomorrow, 25 July, Sunday

Time Temperature Precipitation Wind Pressure Humidity
00:00 +20°C° 0 mm 2 mps 753 mmHg 68%
01:00 +19°C° 0 mm 2 mps 753 mmHg 68%
02:00 +19°C° 0 mm 2 mps 753 mmHg 69%
03:00 +18°C° 0 mm 2 mps 753 mmHg 71%
04:00 +18°C° 0 mm 2 mps 753 mmHg 72%
05:00 +19°C° 0 mm 3 mps 753 mmHg 69%
06:00 +21°C° 0 mm 3 mps 753 mmHg 66%
07:00 +22°C° 0 mm 4 mps 753 mmHg 62%
08:00 +25°C° 0 mm 4 mps 753 mmHg 58%
09:00 +26°C° 0 mm 4 mps 753 mmHg 54%
10:00 +28°C° 0 mm 5 mps 753 mmHg 49%
11:00 +29°C° 0 mm 5 mps 752 mmHg 47%
12:00 +29°C° 0 mm 5 mps 752 mmHg 45%
13:00 +30°C° 0 mm 5 mps 752 mmHg 43%
14:00 +29°C° 0 mm 4 mps 752 mmHg 47%
15:00 +28°C° 0 mm 3 mps 752 mmHg 52%
16:00 +27°C° 0 mm 3 mps 752 mmHg 57%
17:00 +25°C° 0.4 mm 3 mps 752 mmHg 64%
18:00 +24°C° 0.4 mm 3 mps 752 mmHg 71%
19:00 +22°C° 0.4 mm 3 mps 753 mmHg 78%
20:00 +21°C° 0.1 mm 3 mps 753 mmHg 81%
21:00 +20°C° 0.1 mm 3 mps 753 mmHg 83%
22:00 +20°C° 0.1 mm 3 mps 753 mmHg 86%
23:00 +20°C° 0 mm 3 mps 752 mmHg 86%

Day after tomorrow, 26 July, Monday

Time Temperature Precipitation Wind Pressure Humidity
00:00 +19°C° 0 mm 3 mps 752 mmHg 86%
01:00 +19°C° 0 mm 3 mps 752 mmHg 87%
02:00 +19°C° 0 mm 3 mps 752 mmHg 84%
03:00 +20°C° 0 mm 3 mps 752 mmHg 81%
04:00 +20°C° 0 mm 3 mps 752 mmHg 78%
05:00 +20°C° 0 mm 3 mps 752 mmHg 75%
06:00 +21°C° 0 mm 3 mps 752 mmHg 73%
07:00 +22°C° 0 mm 3 mps 752 mmHg 71%
08:00 +23°C° 0 mm 4 mps 752 mmHg 64%
09:00 +26°C° 0 mm 4 mps 752 mmHg 58%
10:00 +28°C° 0 mm 5 mps 752 mmHg 52%
11:00 +29°C° 0 mm 5 mps 751 mmHg 52%
12:00 +29°C° 0 mm 5 mps 751 mmHg 51%
13:00 +29°C° 0 mm 5 mps 751 mmHg 50%
14:00 +29°C° 0 mm 4 mps 751 mmHg 53%
15:00 +29°C° 0 mm 3 mps 751 mmHg 55%
16:00 +29°C° 0 mm 2 mps 751 mmHg 57%
17:00 +27°C° 0.6 mm 2 mps 751 mmHg 64%
18:00 +26°C° 0.6 mm 3 mps 751 mmHg 72%
19:00 +25°C° 0.6 mm 3 mps 751 mmHg 79%
20:00 +24°C° 0.8 mm 3 mps 751 mmHg 84%
21:00 +23°C° 0.8 mm 2 mps 751 mmHg 89%
22:00 +21°C° 0.8 mm 2 mps 751 mmHg 94%
23:00 +20°C° 0.3 mm 2 mps 751 mmHg 94%

27 July, Tuesday

Time Temperature Precipitation Wind Pressure Humidity
00:00 +21°C° 0.3 mm 1 mps 751 mmHg 94%
01:00 +21°C° 0.3 mm 1 mps 751 mmHg 95%
02:00 +21°C° 0 mm 1 mps 751 mmHg 95%
03:00 +19°C° 0 mm 2 mps 751 mmHg 94%
04:00 +19°C° 0 mm 2 mps 751 mmHg 94%
05:00 +20°C° 0 mm 2 mps 751 mmHg 89%
06:00 +21°C° 0 mm 2 mps 752 mmHg 84%
07:00 +22°C° 0 mm 3 mps 752 mmHg 79%
08:00 +25°C° 0 mm 3 mps 752 mmHg 70%
09:00 +27°C° 0 mm 3 mps 752 mmHg 61%
10:00 +28°C° 0 mm 4 mps 752 mmHg 53%
11:00 +29°C° 0 mm 4 mps 752 mmHg 48%
12:00 +30°C° 0 mm 4 mps 752 mmHg 44%
13:00 +32°C° 0 mm 4 mps 752 mmHg 40%
14:00 +32°C° 0 mm 4 mps 752 mmHg 39%
15:00 +32°C° 0 mm 4 mps 752 mmHg 38%
16:00 +32°C° 0 mm 4 mps 752 mmHg 37%
17:00 +30°C° 0 mm 3 mps 752 mmHg 43%
18:00 +28°C° 0 mm 3 mps 752 mmHg 49%
19:00 +27°C° 0 mm 2 mps 752 mmHg 54%
20:00 +25°C° 0 mm 2 mps 752 mmHg 60%
21:00 +24°C° 0 mm 2 mps 752 mmHg 66%
22:00 +23°C° 0 mm 2 mps 752 mmHg 72%
23:00 +21°C° 0 mm 2 mps 752 mmHg 75%

28 July, Wednesday

Time Temperature Precipitation Wind Pressure Humidity
00:00 +21°C° 0 mm 2 mps 752 mmHg 78%
01:00 +20°C° 0 mm 2 mps 752 mmHg 81%
02:00 +20°C° 0 mm 2 mps 752 mmHg 83%
03:00 +20°C° 0 mm 1 mps 752 mmHg 84%
04:00 +20°C° 0 mm 1 mps 752 mmHg 85%
05:00 +21°C° 0 mm 1 mps 752 mmHg 79%
06:00 +23°C° 0 mm 1 mps 752 mmHg 73%
07:00 +24°C° 0 mm 2 mps 752 mmHg 67%
08:00 +26°C° 0 mm 2 mps 752 mmHg 60%
09:00 +28°C° 0 mm 2 mps 752 mmHg 53%
10:00 +29°C° 0 mm 3 mps 752 mmHg 45%
11:00 +30°C° 0 mm 3 mps 751 mmHg 43%
12:00 +31°C° 0 mm 3 mps 751 mmHg 41%
13:00 +32°C° 0 mm 4 mps 751 mmHg 39%
14:00 +32°C° 0 mm 4 mps 751 mmHg 40%
15:00 +32°C° 0 mm 4 mps 750 mmHg 40%
16:00 +32°C° 0 mm 4 mps 750 mmHg 40%
17:00 +27°C° 3.5 mm 3 mps 751 mmHg 58%
18:00 +24°C° 3.5 mm 2 mps 751 mmHg 75%
19:00 +20°C° 3.5 mm 2 mps 751 mmHg 92%
20:00 +19°C° 0 mm 2 mps 752 mmHg 93%
21:00 +19°C° 0 mm 2 mps 752 mmHg 93%
22:00 +19°C° 0 mm 3 mps 752 mmHg 94%
23:00 +18°C° 0 mm 3 mps 752 mmHg 94%

29 July, Thursday

Time Temperature Precipitation Wind Pressure Humidity
00:00 +18°C° 0 mm 2 mps 752 mmHg 95%
01:00 +18°C° 0 mm 2 mps 753 mmHg 96%
02:00 +17°C° 0 mm 2 mps 753 mmHg 95%
03:00 +17°C° 0 mm 2 mps 753 mmHg 95%
04:00 +16°C° 0 mm 2 mps 753 mmHg 95%
05:00 +18°C° 0 mm 2 mps 753 mmHg 89%
06:00 +19°C° 0 mm 3 mps 753 mmHg 84%
07:00 +20°C° 0 mm 3 mps 754 mmHg 79%
08:00 +22°C° 0 mm 3 mps 754 mmHg 69%
09:00 +24°C° 0 mm 3 mps 753 mmHg 60%
10:00 +26°C° 0 mm 3 mps 753 mmHg 50%
11:00 +26°C° 0 mm 3 mps 753 mmHg 47%
12:00 +27°C° 0 mm 3 mps 753 mmHg 43%
13:00 +28°C° 0 mm 3 mps 753 mmHg 39%
14:00 +28°C° 0 mm 3 mps 752 mmHg 41%
15:00 +28°C° 0 mm 3 mps 752 mmHg 44%
16:00 +27°C° 0 mm 3 mps 752 mmHg 46%
17:00 +26°C° 0 mm 3 mps 751 mmHg 51%
18:00 +25°C° 0 mm 3 mps 751 mmHg 56%
19:00 +24°C° 0 mm 3 mps 751 mmHg 61%
20:00 +22°C° 0 mm 3 mps 750 mmHg 63%
21:00 +21°C° 0 mm 3 mps 750 mmHg 66%
22:00 +20°C° 0 mm 2 mps 750 mmHg 68%
23:00 +20°C° 0 mm 3 mps 750 mmHg 69%
Show more